Wind_Speed
24 23 17 11 6 2 4 6 5 4 5 4 3 5 6 9 9 7 7 11 11 11 13 13 13 13 12 12 12 13 14 14 15 16 16 17 17 19 22 24 25 28 29 31
32 33 23 18 12 9 7 3 4 5 7 5 5 3 2 4 5 3 5 6 8 8 10 11 11 10 10 12 13 13 15 16 17 19 20 20 22 23 24 26 28 30 30 33
40 40 26 26 22 18 15 10 6 6 8 9 8 7 5 10 3 5 2 3 5 6 9 10 11 11 12 13 15 15 16 18 20 21 22 24 26 24 26 28 30 30 33 37
44 43 32 33 29 25 22 18 14 11 8 11 10 9 9 6 9 8 9 5 9 12 12 15 13 15 14 15 17 19 21 23 24 26 29 29 29 30 30 32 31 33 34 39
44 45 37 39 39 32 30 23 20 18 15 10 13 12 14 10 11 13 13 13 12 13 14 16 17 18 18 18 20 22 25 27 27 29 31 33 34 34 34 35 36 36 39 43
54 49 42 40 44 36 34 27 26 22 22 20 15 18 14 14 17 16 15 15 18 16 18 21 20 18 20 22 24 26 29 31 33 32 31 34 37 37 37 39 38 40 44 46
56 52 44 45 45 39 39 35 32 29 26 29 19 23 19 18 20 20 20 20 18 18 20 24 24 22 24 27 30 33 34 34 34 35 36 37 37 38 39 42 39 41 45 49
62 59 48 46 47 45 48 43 39 38 35 34 24 24 28 25 24 27 27 28 28 28 27 29 31 32 32 32 32 35 36 37 38 38 40 42 42 42 40 39 41 45 44 48
66 61 59 54 54 55 52 46 47 42 38 36 31 31 34 32 31 33 35 36 34 35 36 35 35 37 37 35 36 38 40 41 42 42 42 45 45 46 45 45 46 48 50 53
70 69 67 62 62 57 55 54 48 43 38 36 36 37 38 38 36 38 40 42 39 40 41 42 41 41 40 40 40 42 44 45 45 45 45 45 45 47 49 49 48 52 56 57
75 71 72 71 65 61 60 56 51 49 43 39 39 37 41 40 39 40 41 43 43 42 44 45 47 46 45 45 46 46 46 47 48 46 45 47 47 51 52 54 55 55 58 55
73 74 80 70 68 67 64 61 59 56 50 49 46 42 40 40 43 43 43 43 46 44 45 43 46 48 49 50 51 50 50 51 49 49 51 52 50 51 54 54 55 58 60 62
76 76 79 77 77 71 65 62 62 58 58 54 49 44 49 47 45 45 45 46 49 48 47 50 51 51 52 54 57 54 51 53 51 52 55 56 57 57 59 59 59 63 64 65
84 80 80 78 71 71 71 67 67 64 62 58 53 53 53 51 48 47 48 44 48 52 55 55 56 57 59 59 56 55 58 58 57 58 59 61 61 62 61 63 62 65 64 66
84 80 78 76 77 79 78 77 74 70 66 65 61 60 58 56 53 53 51 50 49 54 57 58 57 59 58 59 61 62 61 61 62 60 62 65 67 64 64 64 66 69 70 72
84 79 78 77 79 83 81 78 76 74 70 70 65 61 61 58 57 57 57 56 56 59 62 60 57 59 60 63 64 62 64 65 64 61 64 64 59 53 70 70 75 75 75 72
83 79 78 74 77 81 84 77 75 74 75 71 67 64 68 65 61 61 63 62 61 63 65 65 61 63 65 67 68 68 68 69 65 66 66 67 76 61 60 72 81 79 74 71
84 80 78 74 78 84 81 77 74 75 76 72 61 66 69 69 65 64 63 61 62 65 67 68 69 70 72 72 70 70 73 74 71 69 66 61 43 53 83 80 75 78 76 75
85 83 82 79 80 79 78 78 76 78 75 71 67 67 67 66 64 60 59 62 62 64 68 67 67 71 74 72 71 72 72 71 71 68 60 50 68 84 84 75 75 77 79 80
87 85 85 82 83 83 79 78 76 72 74 67 64 63 61 66 64 64 65 65 66 69 69 68 69 70 70 70 70 67 67 70 68 63 57 62 61 70 73 72 71 75 75 79
85 85 86 86 86 84 80 79 77 75 71 66 67 69 71 72 72 71 72 71 73 73 73 71 74 73 74 73 71 71 70 67 66 67 69 64 63 67 67 65 68 65 70 59
81 87 85 87 87 86 83 81 79 79 76 73 72 74 76 76 77 78 78 75 74 75 74 74 72 74 72 75 73 67 68 70 66 65 58 56 60 55 63 61 59 51 57 40
84 82 79 84 85 83 83 81 79 80 81 80 79 82 83 81 80 81 81 81 81 79 77 78 76 77 79 74 69 67 68 67 64 56 50 47 47 52 59 55 56 47 21 40
84 80 80 79 79 78 77 80 80 80 78 79 81 84 86 86 85 83 81 81 81 83 83 80 78 75 72 72 74 68 64 65 48 43 45 47 54 55 59 68 69 75 70 86
84 82 83 77 74 78 74 75 74 75 79 77 80 81 82 83 84 82 81 86 86 88 83 78 73 69 74 74 68 61 58 55 55 47 46 59 64 66 76 80 80 81 89 86
78 77 80 74 72 73 76 80 81 81 81 81 81 80 83 85 87 84 80 81 75 72 70 68 67 69 72 73 68 60 33 60 63 63 66 71 70 77 77 81 87 98 104 100
Wind_Direction
266 268 266 271 271 288 335 358 343 19 15 55 73 60 63 89 91 99 109 102 92 85 84 74 63 48 34 29 29 27 24 21 18 19 16 13 6 3 2 2 1 2 1 359
260 257 257 258 264 264 259 260 291 301 300 322 348 5 37 89 114 120 112 85 85 63 48 47 39 30 21 10 8 7 3 358 360 2 358 356 351 353 354 354 354 354 356 356
251 252 252 257 259 264 255 244 242 269 282 290 296 304 335 229 228 198 190 6 8 12 7 6 8 5 354 347 347 344 343 345 343 340 342 342 345 335 341 343 343 343 349 351
250 255 247 252 253 253 256 243 246 245 252 276 284 293 291 259 272 284 274 295 315 319 309 330 334 335 337 336 335 335 337 336 333 333 335 336 335 334 332 330 331 332 337 342
245 249 246 245 244 245 249 246 238 245 248 262 277 277 281 285 264 268 276 286 283 297 303 307 313 317 321 324 327 330 329 327 328 331 330 328 327 325 321 318 321 329 330 334
243 247 247 248 252 247 245 247 245 235 245 243 250 272 279 276 275 272 277 274 283 292 295 297 301 309 310 315 319 322 323 322 322 325 323 321 320 318 317 319 320 322 327 326
249 251 248 247 254 254 254 244 240 242 241 250 242 262 259 270 281 284 284 285 283 289 297 303 304 304 309 308 312 314 315 314 315 317 316 315 315 315 316 317 312 316 321 323
238 243 243 248 249 249 247 247 243 235 239 244 242 251 259 265 269 277 281 283 289 290 292 297 301 301 301 305 309 309 308 309 312 313 311 311 311 311 312 312 310 312 315 321
239 241 240 238 240 243 247 246 246 245 239 241 241 242 254 253 260 267 273 277 280 284 286 286 288 290 293 298 301 302 303 304 305 307 307 307 310 310 310 309 306 308 312 314
235 234 239 235 237 241 247 247 250 252 251 245 241 240 245 249 252 258 264 267 270 275 281 283 285 288 291 293 295 295 298 301 303 305 306 307 308 306 307 308 306 307 310 313
235 235 238 237 238 240 241 246 249 249 250 249 250 250 249 252 254 257 264 270 277 279 282 286 288 290 291 292 292 294 296 298 302 307 308 305 305 307 309 308 305 307 310 315
235 236 238 239 239 240 242 244 246 250 251 250 252 255 255 255 255 258 262 264 271 276 279 282 286 287 290 290 290 292 296 301 302 304 303 303 305 308 311 306 306 306 307 309
230 233 237 239 239 241 245 246 248 248 249 253 255 253 256 253 255 257 259 264 269 275 279 279 279 283 286 287 291 295 297 296 298 298 300 304 309 311 308 303 301 302 303 310
230 229 232 238 242 242 244 245 247 248 249 250 249 248 251 255 257 260 263 263 268 272 272 276 279 282 284 288 291 291 291 293 297 299 304 307 308 309 303 302 301 302 305 310
228 231 233 237 240 241 240 241 245 247 248 251 251 251 255 259 262 264 265 267 268 271 272 274 278 280 283 284 283 286 290 294 296 301 305 305 309 302 304 302 301 301 302 305
227 229 231 232 237 242 245 245 247 248 249 252 254 258 260 261 264 265 265 264 264 266 270 272 275 279 280 283 286 288 290 293 297 302 299 303 306 295 299 302 303 302 302 304
229 229 231 234 237 241 242 244 247 250 251 251 254 259 261 262 262 264 263 264 268 269 269 272 272 273 275 276 280 283 286 288 292 295 300 303 295 283 295 304 300 298 301 305
227 228 231 231 234 238 241 242 244 247 251 253 255 255 259 261 261 262 264 269 269 270 271 273 274 275 276 280 285 286 288 292 294 296 302 314 283 274 298 300 296 297 301 303
226 227 229 231 237 240 241 242 243 245 248 249 249 252 256 258 261 264 265 264 267 267 269 272 275 277 279 282 285 286 287 289 290 289 291 287 280 283 289 293 296 299 302 305
224 226 229 230 234 237 241 242 245 248 248 250 253 255 257 260 263 262 263 266 269 270 271 275 276 276 280 283 284 286 287 289 291 291 291 294 280 279 288 294 296 303 306 304
223 225 228 231 235 238 240 242 244 245 250 252 254 256 256 258 261 265 267 268 270 271 275 277 278 281 283 285 286 287 289 288 290 294 299 294 286 291 296 300 300 306 306 301
222 225 227 232 233 236 239 243 246 249 250 252 255 257 259 262 266 269 272 274 273 274 275 277 279 282 283 284 286 291 293 294 301 302 296 291 295 296 298 301 296 310 310 305
219 223 229 233 233 238 241 243 248 252 255 258 257 257 258 260 262 266 270 271 273 276 278 279 279 283 285 285 289 293 294 299 302 306 303 304 287 290 296 292 294 291 241 243
219 222 227 230 233 234 238 243 245 248 250 254 257 260 261 263 265 267 270 273 273 274 275 278 279 280 285 287 290 295 297 298 303 301 293 289 285 282 279 287 283 279 273 282
221 222 226 227 233 235 236 241 244 247 249 252 256 258 261 263 265 266 269 272 274 277 279 281 282 286 287 288 294 293 297 289 287 289 272 276 280 285 286 284 283 281 292 288
224 225 228 231 233 237 240 241 241 246 249 251 254 258 258 259 264 267 270 272 275 276 277 280 281 281 285 287 283 288 267 271 273 274 269 273 278 282 283 285 287 291 290 289
Height
10976 10976 10979 10980 10981 10980 10979 10977 10977 10977 10977 10977 10976 10975 10974 10974 10974 10974 10974 10973 10972 10973 10971 10970 10968 10969 10969 10969 10967 10965 10963 10961 10960 10958 10956 10954 10951 10949 10946 10943 10940 10937 10934 10930
10971 10968 10973 10976 10977 10977 10978 10977 10976 10976 10977 10976 10976 10976 10975 10975 10974 10974 10973 10973 10973 10973 10971 10969 10969 10969 10968 10968 10968 10965 10964 10962 10959 10956 10954 10952 10950 10946 10943 10940 10938 10934 10931 10928
10962 10960 10969 10970 10972 10974 10975 10974 10974 10974 10974 10975 10976 10976 10976 10975 10975 10975 10974 10972 10971 10971 10971 10970 10969 10968 10968 10967 10965 10964 10962 10959 10957 10955 10952 10949 10947 10944 10940 10937 10934 10931 10926 10921
10952 10953 10963 10963 10966 10968 10969 10970 10970 10973 10972 10972 10973 10973 10975 10976 10973 10973 10972 10971 10970 10969 10968 10968 10968 10967 10966 10965 10963 10961 10958 10956 10954 10951 10947 10944 10942 10939 10936 10933 10930 10926 10920 10914
10945 10944 10952 10954 10956 10961 10961 10966 10968 10969 10970 10968 10971 10972 10972 10972 10971 10970 10971 10970 10969 10968 10967 10967 10967 10965 10963 10961 10959 10957 10955 10952 10949 10945 10941 10939 10937 10934 10932 10928 10923 10919 10912 10907
10928 10934 10942 10946 10945 10954 10954 10960 10962 10964 10967 10966 10967 10966 10968 10967 10967 10968 10967 10966 10965 10966 10965 10964 10964 10962 10960 10958 10956 10954 10952 10949 10944 10940 10939 10936 10930 10928 10925 10920 10914 10909 10905 10901
10920 10926 10933 10935 10936 10944 10946 10951 10955 10958 10961 10958 10963 10963 10965 10964 10961 10961 10962 10961 10963 10962 10960 10958 10958 10957 10955 10952 10950 10947 10945 10944 10940 10937 10933 10931 10928 10923 10918 10912 10907 10903 10899 10894
10906 10910 10923 10928 10929 10931 10931 10938 10945 10949 10952 10953 10960 10960 10956 10959 10959 10956 10956 10954 10956 10955 10955 10954 10950 10948 10947 10946 10943 10941 10939 10936 10933 10930 10926 10923 10919 10915 10911 10906 10900 10895 10891 10886
10896 10902 10904 10913 10913 10914 10919 10929 10930 10937 10944 10949 10953 10954 10951 10953 10954 10951 10949 10948 10949 10947 10946 10945 10944 10942 10940 10940 10938 10935 10932 10929 10926 10924 10920 10915 10911 10905 10902 10898 10893 10886 10881 10877
10879 10884 10887 10894 10897 10905 10910 10914 10920 10928 10934 10938 10942 10946 10947 10947 10947 10946 10942 10941 10942 10940 10938 10935 10934 10934 10933 10932 10931 10929 10925 10921 10917 10915 10911 10905 10900 10895 10891 10887 10881 10875 10869 10864
10862 10872 10870 10873 10889 10894 10899 10905 10911 10915 10923 10928 10931 10936 10936 10937 10939 10938 10936 10933 10929 10929 10928 10926 10924 10924 10924 10922 10922 10920 10917 10913 10908 10902 10898 10894 10889 10883 10879 10873 10868 10863 10858 10854
10850 10856 10847 10869 10875 10879 10884 10892 10896 10902 10911 10914 10920 10925 10926 10928 10928 10929 10929 10928 10922 10923 10921 10921 10918 10915 10913 10912 10911 10910 10906 10902 10897 10893 10888 10883 10880 10874 10868 10861 10854 10849 10844 10842
10830 10840 10842 10849 10853 10866 10878 10884 10886 10891 10896 10904 10911 10916 10911 10915 10918 10920 10922 10921 10916 10916 10915 10911 10908 10905 10901 10898 10897 10895 10893 10890 10886 10882 10877 10873 10867 10862 10857 10850 10845 10839 10835 10832
10801 10819 10826 10838 10855 10856 10859 10867 10869 10875 10882 10889 10897 10899 10900 10902 10907 10909 10910 10916 10912 10907 10902 10900 10896 10894 10890 10887 10883 10881 10879 10878 10874 10871 10867 10862 10856 10850 10845 10840 10834 10828 10823 10820
10790 10806 10816 10830 10834 10834 10841 10845 10852 10860 10868 10871 10881 10884 10889 10893 10896 10898 10900 10902 10901 10892 10888 10888 10887 10884 10880 10875 10871 10869 10866 10863 10861 10861 10858 10849 10843 10838 10832 10827 10819 10815 10809 10804
10776 10794 10801 10809 10815 10814 10823 10834 10838 10845 10853 10856 10866 10874 10875 10881 10884 10885 10885 10886 10887 10883 10878 10878 10877 10872 10867 10862 10858 10857 10854 10851 10853 10857 10848 10841 10831 10823 10814 10815 10810 10801 10792 10787
10762 10778 10786 10799 10801 10799 10800 10819 10825 10830 10834 10843 10853 10862 10857 10864 10870 10870 10867 10869 10871 10870 10865 10864 10865 10860 10856 10852 10850 10848 10845 10842 10847 10846 10839 10830 10823 10811 10802 10797 10794 10786 10777 10769
10745 10759 10769 10781 10777 10775 10789 10802 10810 10811 10815 10825 10843 10844 10842 10843 10849 10852 10854 10855 10854 10852 10850 10848 10846 10844 10841 10838 10838 10837 10831 10829 10832 10832 10830 10822 10796 10795 10789 10784 10778 10770 10758 10749
10725 10738 10747 10759 10763 10768 10775 10782 10789 10792 10801 10811 10823 10826 10826 10828 10830 10834 10836 10835 10835 10835 10831 10831 10831 10829 10825 10825 10825 10824 10820 10816 10816 10820 10822 10820 10805 10783 10776 10772 10764 10749 10738 10726
10704 10718 10728 10742 10742 10746 10760 10767 10775 10785 10785 10801 10807 10811 10812 10808 10812 10814 10816 10817 10818 10815 10815 10817 10815 10812 10812 10811 10809 10809 10804 10801 10797 10800 10804 10805 10792 10775 10766 10757 10746 10734 10724 10710
10688 10700 10710 10721 10726 10734 10745 10751 10759 10765 10775 10787 10790 10791 10791 10791 10791 10793 10797 10800 10798 10798 10797 10798 10793 10793 10792 10791 10789 10789 10790 10786 10784 10781 10777 10772 10767 10759 10745 10735 10727 10719 10708 10696
10671 10682 10695 10704 10711 10718 10731 10738 10746 10752 10761 10770 10772 10772 10771 10773 10773 10772 10774 10779 10779 10779 10779 10778 10778 10775 10773 10770 10772 10772 10768 10765 10763 10762 10757 10750 10741 10734 10728 10718 10717 10713 10700 10695
10653 10670 10678 10686 10701 10710 10719 10726 10730 10733 10738 10743 10750 10749 10748 10751 10757 10755 10756 10756 10756 10759 10762 10759 10760 10756 10754 10753 10751 10753 10751 10747 10743 10742 10739 10734 10728 10721 10713 10708 10703 10710 10707 10692
10646 10657 10661 10670 10682 10695 10702 10704 10712 10714 10717 10720 10721 10724 10728 10731 10733 10738 10737 10736 10737 10737 10738 10740 10741 10740 10739 10736 10737 10739 10735 10729 10730 10727 10723 10720 10718 10708 10699 10696 10688 10687 10687 10685
10635 10640 10647 10657 10668 10679 10690 10693 10694 10693 10699 10707 10707 10708 10710 10713 10712 10714 10716 10718 10720 10718 10721 10722 10722 10721 10720 10720 10725 10730 10724 10719 10715 10716 10710 10704 10700 10696 10685 10680 10671 10664 10659 10652
10619 10632 10637 10651 10657 10664 10671 10676 10680 10683 10686 10688 10691 10691 10691 10691 10695 10700 10705 10704 10705 10703 10702 10701 10703 10706 10705 10704 10708 10712 10724 10706 10696 10695 10691 10689 10686 10678 10676 10665 10657 10649 10639 10632